Aeroporto :
LOGIN :

Iscrizione | Disclaimer

   EN    FR    IT 

 










Sommario :    VFR   VFR Marginale   IFR   IFR Intensivo   IFR Molto Intensivo
Visibilità : 
Base nubi : 
>= 8 km
>= 3000ft
5 / 8 km
1000 / 3000 ft
1500m / 5 km
500 / 1000 ft
800 / 1500m
200 / 500 ft
< 800m
< 200 ft
Simboli :   Temporali  Nebbia  Neve Forte  Precipitazioni Forti  Vento > 20 kt
SIGMETs :   Varie  Temporali  Ghiacco  Turbolenza  Onda orograficha  Ceneri Vulcaniche






- Altitudine del aeroporto : 15 ft
- Codice IATA : BHD


EGAC - George Best Belfast City

ULTIMO METAR :
  • 192350Z AUTO 18005KT 9999 NCD 03/01 Q1045

METARs OBSOLETI :
  • 192320Z AUTO 19006KT 9999 NCD 03/02 Q1045
  • 192250Z AUTO 19005KT 150V230 9999 NCD 03/01 Q1045
  • 192220Z AUTO 16004KT 9999 NCD 04/01 Q1045
  • 192150Z AUTO 15005KT 9999 NCD 04/01 Q1046
  • 192120Z AUTO 17007KT 9999 NCD 04/01 Q1045
  • 192050Z AUTO 18007KT 9999 NCD 04/01 Q1045

TAF TAF EGAC
Valido dal 19 a 18 ore il 20 a 03 ore UTC


191706Z 1918/2003 19009KT CAVOK
ATIS : +44 02890 935 124



MetMap, La meteo Aeronautica in un colpo d'occhio ! - Copyright ORBIFLY Dicembre 2007 - Disclaimer

ORBIFLY MET'MAP TEAM :

Programmazione e sviluppo : Alexandra Zaïnal
Concezione : Baudouin d'Aumeries
Aiuto per la programmazione : Marc-Olivier Méhu
Supporto tecnico e logistico : Manuel Goepfert
Aiuto per la traduzione : Arnaldo La Scala

Contatto : metmap@orbifly.com




FONTI E CREDITI :

   NOAA